Location: Bonn
(50.7330°N, 7.1000°E)
Time: 18:09:56
(UTC+02:00)

Daily predictions for brighter satellites

Satellite Brightness Start Highest point End
(mag) Time Altitude Azimuth Time Altitude Azimuth Time Altitude Azimuth
NOSS 3-3 (A) 4.4 20:55:37 10° SW 21:02:00 75° NW 21:08:58 10° NE
NOSS 3-3 (C) 4.4 20:55:45 10° SW 21:02:06 76° NW 21:09:05 10° NE
Meteor 2-15 Rocket 4.5 20:56:02 10° N 21:02:09 72° ENE 21:08:12 10° SSE
Meteor 2-14 Rocket 4.5 21:00:44 10° S 21:06:49 66° E 21:12:55 10° NNE
Helios 1B rocket 3.7 21:05:15 10° N 21:09:14 47° WNW 21:13:11 10° SW
Lacrosse 5 2.2 21:04:22 10° WNW 21:09:24 60° NNE 21:14:25 10° ESE
Cosmos 2208 Rocket 4.4 21:06:05 10° S 21:11:05 43° ESE 21:16:10 10° NE
SPOT 5 3.7 21:16:04 10° SE 21:20:38 35° ENE 21:25:00 10° N
Cosmos 1892 Rocket 4.4 21:17:32 10° NNW 21:21:55 55° W 21:26:17 10° S
Cosmos 1934 Rocket 4.0 21:16:38 10° S 21:22:45 82° E 21:29:02 10° N
Cosmos 1626 Rocket 3.6 21:19:45 10° N 21:24:11 63° ENE 21:28:31 10° SSE
Cosmos 1656 Rocket 4.3 21:19:15 10° SW 21:24:47 63° WNW 21:30:17 10° NNE
H-2A R/B 2.6 21:21:06 10° SE 21:24:55 39° ENE 21:28:47 10° N
Okean 2 4.3 21:23:44 10° NNW 21:27:49 52° W 21:31:52 10° S
Cosmos 1340 4.2 21:26:37 10° NNE 21:29:33 21° ENE 21:31:54 13° ESE
Cosmos 1570 Rocket 4.0 21:24:39 10° S 21:29:53 64° ESE 21:35:06 10° NNE
Meteor 1-12 Rocket 4.5 21:24:51 10° S 21:30:23 52° E 21:36:04 10° NNE
H-2A R/B 3.8 21:28:08 10° E 21:31:05 16° NE 21:34:00 10° NNE
Cosmos 1602 Rocket 3.6 21:27:31 10° N 21:32:01 75° E 21:36:28 10° SSE
Cosmos 1455 Rocket 3.0 21:29:04 10° S 21:33:24 87° E 21:37:47 10° N
Cosmos 1515 3.8 21:31:14 10° N 21:35:04 57° ENE 21:38:51 10° SSE
Cosmos 1937 Rocket 4.0 21:30:47 10° NNW 21:35:52 47° ENE 21:40:17 13° SE
Envisat 3.0 21:31:18 10° SSE 21:36:20 69° ENE 21:41:24 10° N
Cosmos 2278 3.8 21:31:27 10° S 21:36:58 55° ESE 21:42:33 10° NE
Cosmos 1697 Rocket 3.7 21:33:46 10° SSE 21:38:10 24° ESE 21:42:34 10° NE
Cosmos 1975 3.0 21:35:36 10° S 21:39:35 52° E 21:43:36 10° NNE
Cosmos 2150 Rocket 4.1 21:35:35 10° NNW 21:40:44 63° ENE 21:45:16 13° SE
Resurs 01 Rocket 4.5 21:39:56 10° SW 21:42:41 16° W 21:45:26 10° NW
EP 2 4.3 21:40:56 10° SSW 21:43:33 62° SE 21:46:36 10° NE
Cosmos 1461 3.8 21:39:52 10° NW 21:43:47 42° WSW 21:47:32 10° SSE
Lacrosse 5 rocket 1.8 21:44:10 10° WNW 21:47:44 43° SW 21:50:26 15° SSE
Cosmos 1743 3.9 21:45:56 17° SE 21:47:54 24° E 21:51:05 10° NE
SPOT 1/Viking Rocket 4.2 21:45:29 15° SE 21:49:24 39° ENE 21:54:14 10° N
Cosmos 2369 3.7 21:44:12 10° SSW 21:49:46 61° ESE 21:55:24 10° NE
NOSS 2-1 (D) 3.5 21:45:47 10° SW 21:49:47 88° NW 21:54:38 10° NE
NOSS 2-1 (C) 3.5 21:46:47 10° SW 21:50:48 89° NW 21:55:40 10° NE
ASTEX 1 4.2 21:47:03 10° NNE 21:51:35 33° E 21:54:57 16° SE
Iridium 4 Rocket 3.5 21:48:17 10° N 21:53:41 85° W 21:58:35 10° S
Cosmos 990 Rocket 4.4 21:48:43 10° NNW 21:53:51 49° ENE 21:57:32 18° SE
YAOGAN 6 3.0 21:54:14 19° SE 21:56:32 47° ENE 22:00:08 10° N
BREEZE-M DEB (TANK) 3.8 21:54:41 10° W 21:58:02 66° SSW 22:05:49 15° ESE
Cosmos 1980 Rocket 3.4 21:57:29 18° SE 21:59:43 22° E 22:03:59 10° NE
Cosmos 2173 Rocket 4.2 21:56:36 10° SSE 22:02:43 51° E 22:08:48 10° NNE
Meteor 1-21 4.5 21:57:39 10° N 22:03:19 55° ENE 22:07:28 18° SE
Cosmos 2084 3.4 22:00:23 10° NW 22:04:22 71° SW 22:06:59 22° SSE
SL-08 RB Rocket 4.5 22:02:37 20° ESE 22:05:15 37° ENE 22:09:32 10° N
Cosmos 1605 Rocket 4.3 21:59:03 10° SSW 22:05:24 72° WNW 22:11:41 10° N
NOSS 2-1 (E) 3.8 22:02:44 10° SW 22:06:49 74° NW 22:11:52 10° NE
Terra 3.3 22:04:42 17° E 22:06:57 23° ENE 22:10:40 10° N
ARGOS 3.5 22:03:26 19° SE 22:07:04 50° ENE 22:12:17 10° N
Cosmos 2061 Rocket 4.1 22:01:49 10° SSE 22:07:56 55° E 22:14:02 10° NNE
Tiangong 1 2.8 22:06:45 10° SW 22:08:53 19° S 22:08:53 19° S
ATLAS CENTAUR R/B 3.6 22:04:26 10° W 22:09:01 35° NW 22:13:27 10° NNE
Cosmos 1939 Rocket 3.6 22:05:14 10° S 22:09:16 53° W 22:13:23 10° NNW
Cosmos 1898 Rocket 3.6 22:04:06 10° NNW 22:09:26 78° WSW 22:13:41 16° SSE
Cosmos 2100 Rocket 4.0 22:04:47 10° S 22:10:59 63° E 22:17:08 10° NNE
Cosmos 1606 Rocket 4.3 22:09:49 23° SE 22:11:46 35° E 22:15:48 10° NNE
ERS-1 Rocket 3.9 22:09:00 10° S 22:13:50 47° W 22:18:42 10° NNW
Cosmos 1125 Rocket 4.4 22:10:39 10° NNW 22:15:25 35° NE 22:18:07 21° ESE
PSLV R/B 3.0 22:17:35 35° SSE 22:18:41 77° ENE 22:21:45 10° N
Cosmos 2227 Rocket 3.7 22:15:47 10° NW 22:20:44 32° WSW 22:25:41 10° SSW
BREEZE-M TANK 4.1 22:12:08 10° W 22:21:30 34° SW 22:23:39 21° SSE
CZ-4 SHROUD 3.0 22:21:01 39° SSE 22:22:00 75° ENE 22:25:06 10° N
USA 215 3.2 22:19:59 22° SE 22:24:31 83° SSW 22:31:06 10° WNW
Cosmos 2263 Rocket 3.5 22:19:58 10° NNW 22:24:44 28° NE 22:27:57 17° E
Cosmos 1763 Rocket 4.2 22:25:00 27° SE 22:26:13 30° ESE 22:30:39 10° NE
MetOp-B 4.2 22:24:43 17° S 22:28:51 78° WSW 22:34:15 10° NNW
Cosmos 2322 Rocket 3.9 22:31:27 15° E 22:31:27 15° E 22:33:41 10° ENE
RESURS DK-1 2.5 22:29:38 10° NW 22:33:47 67° WSW 22:35:35 32° SSE
Cosmos 468 Rocket 3.8 22:31:12 10° SSW 22:36:17 70° ESE 22:41:25 10° NNE
Cosmos 1726 Rocket 3.7 22:34:58 34° SSE 22:36:29 51° E 22:40:46 10° NNE
Cosmos 2297 Rocket 3.6 22:31:41 10° NW 22:36:41 33° WSW 22:41:39 10° SSW
Cosmos 2227 4.2 22:31:33 10° NNW 22:37:22 82° ENE 22:40:19 30° SE
Cosmos 1656 3.6 22:34:14 10° SSW 22:39:51 83° ESE 22:45:26 10° NNE
Cosmos 1666 3.0 22:42:45 42° E 22:42:53 43° E 22:46:30 10° NNE
Cosmos 1814 Rocket 3.9 22:37:46 10° SSW 22:43:04 69° ESE 22:48:21 10° NNE
Cosmos 1825 Rocket 4.0 22:39:52 10° NNW 22:44:16 61° W 22:46:51 24° S
Cosmos 841 Rocket 4.0 22:44:30 35° SE 22:45:41 39° ESE 22:50:32 10° NE
CZ-4C R/B 3.9 22:44:24 38° ESE 22:45:42 51° ENE 22:50:01 10° N
Cosmos 1725 Rocket 4.1 22:43:38 28° SSE 22:46:46 54° E 22:52:50 10° NNE
Lacrosse 5 2.4 22:47:29 10° WNW 22:52:20 47° SW 22:54:03 34° S
Cosmos 1459 Rocket 4.1 22:46:20 10° SSW 22:52:23 75° WNW 22:58:32 10° N
Cosmos 1953 Rocket 3.8 22:47:59 10° NNW 22:52:24 68° W 22:54:27 31° S
SPOT 5 4.1 22:54:45 14° SSW 22:58:40 38° W 23:03:12 10° NNW
H-2A R/B 3.9 22:57:57 11° SSW 23:01:05 24° W 23:04:30 10° NW
GP-B 3.9 22:57:50 10° NNE 23:01:55 34° E 23:01:59 34° E
Cosmos 405 Rocket 3.1 22:59:49 10° N 23:03:29 46° ENE 23:03:29 46° ENE
Cosmos 1340 3.8 23:01:54 10° NNW 23:05:27 38° W 23:06:48 28° SW
H-2A R/B 1.9 23:08:17 46° SSE 23:09:50 85° ENE 23:14:48 10° NNW
GEOS 3 Rocket 3.6 23:05:10 10° NE 23:10:13 56° SE 23:12:07 35° S
Cosmos 1758 Rocket 4.2 23:07:26 10° NNW 23:11:42 50° W 23:13:18 32° SSW
Cosmos 1802 Rocket 4.4 23:06:49 10° SSW 23:13:09 64° WNW 23:19:34 10° N
Cosmos 2233 Rocket 4.1 23:14:15 41° SE 23:16:05 56° E 23:22:10 10° NNE
Cosmos 372 Rocket 4.1 23:11:03 10° NNW 23:16:08 61° ENE 23:17:17 48° ESE
Cosmos 2098 Rocket 4.0 23:11:57 23° S 23:16:38 88° W 23:22:32 10° N
Cosmos 1697 Rocket 3.0 23:16:00 10° SW 23:21:38 69° WNW 23:27:18 10° NNE
Meteor 2-17 Rocket 4.4 23:19:54 44° SSE 23:21:40 62° E 23:27:38 10° NNE
BREEZE-M DEB (TANK) 3.6 23:14:47 10° WSW 23:22:02 39° S 23:22:02 39° S
Cosmos 1743 4.3 23:21:04 16° SW 23:23:37 33° WNW 23:27:13 10° N
SL-16 R/B 2.9 23:24:28 36° E 23:24:28 36° E 23:29:07 10° NE
Meteor 2-5 Rocket 3.9 23:19:38 10° N 23:25:34 64° ENE 23:27:05 48° SE
Cosmos 2228 2.8 23:25:38 77° S 23:25:57 87° E 23:30:15 10° N
DELTA 2 DEB (DPAF) 4.3 23:25:28 53° SSW 23:26:18 67° WSW 23:30:49 10° NNW
CZ-4 R/B 3.7 23:22:58 10° NNE 23:27:42 85° WNW 23:29:01 48° SSW
Landsat 7 4.2 23:27:43 43° SSW 23:28:58 58° W 23:33:42 10° NNW
Meteor 1-15 Rocket 4.3 23:28:16 37° SSW 23:30:48 89° WNW 23:36:43 10° NNE
IGS 5A 3.4 23:33:15 74° SW 23:33:25 76° WSW 23:37:36 10° NNW
Cosmos 2058 Rocket 3.6 23:33:57 38° SW 23:35:25 57° WNW 23:39:54 10° N
Cosmos 332 Rocket 4.5 23:38:29 40° ENE 23:38:29 40° ENE 23:42:17 10° NE
Cosmos 1844 Rocket 4.3 23:34:01 10° NNW 23:38:39 26° NE 23:41:03 19° ENE
CZ-4B R/B 4.0 23:37:23 10° N 23:42:01 53° WNW 23:44:14 29° SW
Cosmos 1980 Rocket 2.3 23:39:09 20° SW 23:43:09 74° WNW 23:48:53 10° NNE
Cosmos 2360 Rocket 3.8 23:45:38 20° ENE 23:45:38 20° ENE 23:48:21 10° NE
Terra 2.1 23:43:35 51° SW 23:44:21 58° W 23:49:05 10° NNW
Cosmos 836 Rocket 4.4 23:44:34 60° SSW 23:45:34 84° ESE 23:50:55 10° NNE
Cosmos 1707 3.2 23:48:54 10° N 23:52:09 58° N 23:52:09 58° N
